TimeMST,TemperatureF,Dew PointF,Humidity,Sea Level PressureIn,VisibilityMPH,Wind Direction,Wind SpeedMPH,Gust SpeedMPH,PrecipitationIn,Events,Conditions,WindDirDegrees,DateUTC
12:54 AM,57.0,52.0,83,29.99,10.0,NE,4.6,-,N/A,,Overcast,50,2013-08-20 07:54:00
1:54 AM,53.1,48.9,86,29.99,10.0,Calm,Calm,-,N/A,,Clear,0,2013-08-20 08:54:00
2:54 AM,52.0,48.9,89,30.04,10.0,Calm,Calm,-,N/A,,Clear,0,2013-08-20 09:54:00
3:54 AM,51.1,48.9,92,30.03,10.0,Calm,Calm,-,N/A,,Clear,0,2013-08-20 10:54:00
4:54 AM,51.1,48.0,89,30.03,10.0,Calm,Calm,-,N/A,,Clear,0,2013-08-20 11:54:00
5:54 AM,48.0,46.0,93,30.06,10.0,Calm,Calm,-,N/A,,Clear,0,2013-08-20 12:54:00
6:54 AM,55.0,48.9,80,30.05,10.0,Calm,Calm,-,N/A,,Clear,0,2013-08-20 13:54:00
7:54 AM,64.9,51.1,61,30.03,10.0,ENE,4.6,-,N/A,,Clear,60,2013-08-20 14:54:00
8:54 AM,73.9,46.9,38,30.01,10.0,Calm,Calm,-,N/A,,Clear,0,2013-08-20 15:54:00
9:54 AM,77.0,45.0,32,30.01,10.0,Variable,4.6,-,N/A,,Clear,0,2013-08-20 16:54:00
10:54 AM,79.0,45.0,30,30.00,10.0,West,9.2,-,N/A,,Clear,280,2013-08-20 17:54:00
11:54 AM,81.0,44.1,27,29.99,10.0,SW,6.9,-,N/A,,Scattered Clouds,220,2013-08-20 18:54:00
12:54 PM,82.0,41.0,23,29.97,10.0,Variable,5.8,-,N/A,,Clear,0,2013-08-20 19:54:00
1:54 PM,84.0,41.0,22,29.96,10.0,Variable,6.9,17.3,N/A,,Mostly Cloudy,0,2013-08-20 20:54:00
2:54 PM,86.0,42.1,21,29.93,10.0,West,8.1,16.1,N/A,,Scattered Clouds,260,2013-08-20 21:54:00
3:54 PM,84.0,41.0,22,29.92,10.0,WNW,8.1,-,N/A,,Partly Cloudy,290,2013-08-20 22:54:00
4:54 PM,82.0,43.0,25,29.92,10.0,West,5.8,18.4,N/A,,Scattered Clouds,260,2013-08-20 23:54:00
5:54 PM,79.0,44.1,29,29.94,10.0,Calm,Calm,-,N/A,,Clear,0,2013-08-21 00:54:00
6:54 PM,75.9,46.0,35,29.93,10.0,WSW,3.5,-,N/A,,Clear,250,2013-08-21 01:54:00
7:54 PM,69.1,48.0,47,29.94,10.0,Calm,Calm,-,N/A,,Clear,0,2013-08-21 02:54:00
8:54 PM,62.1,50.0,65,29.96,10.0,Calm,Calm,-,N/A,,Clear,0,2013-08-21 03:54:00
9:54 PM,60.1,50.0,69,29.96,10.0,Calm,Calm,-,N/A,,Clear,0,2013-08-21 04:54:00
10:54 PM,60.1,48.9,67,29.95,10.0,NE,5.8,-,N/A,,Partly Cloudy,50,2013-08-21 05:54:00
11:54 PM,59.0,50.0,72,29.95,10.0,Calm,Calm,-,N/A,,Clear,0,2013-08-21 06:54:00